Location: Newark
(53.4333°N, 36.0000°E)
Time: 21:56:32
(UTC+00:00)

ISS - Pass Details

Date: 28 September 2019
Orbit: 411 x 421 km, 51.6° (Epoch: 15 October)

Event Time Altitude Azimuth Distance (km) Brightness Sun altitude
Rises 16:12:43 0° 255° (WSW) 2,343 1.5 -8.5°
Reaches altitude 10° 16:14:49 10° 251° (WSW) 1,481 0.1 -8.8°
Maximum altitude 16:18:05 59° 172° (S) 480 -3.6 -9.3°
Enters shadow 16:20:46 14° 94° (E) 1,242 -2.0 -9.7°
